Regional Weather Roundup
Issued by NWS

Home | Current Version | Previous Version | Text Only | Print | Product List | Glossary Off
Versions: 1 2 3 4 5 6 7 8 9 10 11 12 13 14 15 16 17 18 19 20 21 22 23 24 25 26 27 28 29 30 31 32 33 34 35 36 37 38 39 40 41 42 43 44 45 46 47 48 49 50

000
ASUS43 KIND 271009
RWRIN

WEATHER ROUNDUP FOR INDIANA
NATIONAL WEATHER SERVICE INDIANAPOLIS IN
600 AM EDT MON APR 27 2015

NOTE: "FAIR" INDICATES FEW OR NO CLOUDS BELOW 12,000 FEET WITH NO
SIGNIFICANT WEATHER AND/OR OBSTRUCTIONS TO VISIBILITY.

* - STATION DOES NOT REPORT WEATHER SUCH AS PRECIPITATION OR FOG.

+ - STATION NOT QUALITY CONTROLLED BY THE NATIONAL WEATHER SERVICE.
    USE DATA WITH CAUTION...ESPECIALLY DEWPOINT AND RELATIVE
    HUMIDITY OBSERVATIONS.

INZ001>003-010>013-019-020-271100-
NORTHWEST INDIANA

CITY           SKY/WX    TMP DP  RH WIND       PRES   REMARKS
GARY /AIRPORT/ CLEAR     43  30  61 N14G25    30.03F
KNOX *+        CLEAR     34  28  80 N9        29.99F WCI  26
LA PORTE +     CLEAR     39  35  84 N12       30.01S
MICHIGAN CITY+ CLEAR     37  30  75 N8        30.02F
MONTICELLO +   CLEAR     37  34  87 N9G16     29.97S
VALPARAISO     CLEAR     37  32  82 N6        30.01F

$$

LMZ046-743>745-271100-
SOUTHERN LAKE MICHIGAN

STATION/POSITION TIME  TEMP    WIND        PRES    WAVE
                       AIR SEA DIR/SP/G            HT
                 (UTC) (F)     (DEG/KT/KT) (MB)    (FT)
BURNS HARBOR     1000   42      10/ 18/ 22 1016.9S
MICHIGAN CITY    1000   41     340/ 20/ 24   N/A
5NW MICH CITY    1000   41 45   10/ 17/ 21   N/A     4

$$

INZ004-005-014>016-021>024-271100-
NORTH CENTRAL INDIANA

CITY           SKY/WX    TMP DP  RH WIND       PRES   REMARKS
GOSHEN         CLEAR     38  31  76 N10       29.97S
LOGANSPORT +   CLEAR     36  32  87 N9        29.97F
PERU/GRISSOM   CLEAR     37  32  81 N7        29.95F
ROCHESTER +    CLEAR     39  36  87 N9        29.98S
SOUTH BEND     CLEAR     38  32  79 N10       30.01S
WARSAW +       CLEAR     36  32  87 N7        29.97S

$$

INZ006>009-017-018-025>027-271100-
NORTHEAST INDIANA

CITY           SKY/WX    TMP DP  RH WIND       PRES   REMARKS
ANGOLA *+      MOCLDY    37  30  75 N5        29.96R
AUBURN +       CLEAR     36  30  80 NW3       29.96S
FORT WAYNE     PTCLDY    35  31  85 N7        29.94S WCI  29
HUNTINGTON +   CLEAR     37  30  77 N5        29.94S

$$

INZ028-029-035-036-043>045-051>053-271100-
WEST CENTRAL INDIANA

CITY           SKY/WX    TMP DP  RH WIND       PRES   REMARKS
CRAWFORDSVL +  CLEAR     32  27  81 NW9       29.98R WCI  24
GREENCASTLE +  CLEAR     36  28  75 NW5       29.99R
LAFAYETTE      CLEAR     36  32  85 N5        29.98S
TERRE HAUTE    CLEAR     38  30  73 W5        30.01R

$$

INZ030>032-037>040-046>048-054>057-064-065-271100-
CENTRAL INDIANA

CITY           SKY/WX    TMP DP  RH WIND       PRES   REMARKS
CP ATTERBURY + CLEAR     37  30  75 CALM      29.96R
FISHERS *+     CLEAR     34  32  93 NW3       29.95S
FRANKFORT +    CLEAR     36  32  88 NW8       29.98S
GREENWOOD *+   CLEAR     36  27  69 NW5       29.96R
INDIANAPOLIS   CLEAR     36  29  75 W6        29.95R
-EAGLE CREEK   CLEAR     38  31  76 N10       29.95R
KOKOMO *+      CLEAR     36  30  80 N9        29.95F
MARION +       CLEAR     35  30  83 NW5       29.95S WCI  31
MT COMFORT *+  CLEAR     34  25  69 NW3       29.94S
SHELBYVILLE    CLEAR     37  30  75 NW6       29.94R
ZIONSVILLE +   CLEAR     36  30  79 NW9       29.96R

$$

INZ033-034-041-042-049-050-058-059-271100-
EAST CENTRAL INDIANA

CITY           SKY/WX    TMP DP  RH WIND       PRES   REMARKS
MUNCIE         CLEAR     37  31  78 NW6       29.93S

$$

INZ060-061-067>069-081>083-085>088-271100-
SOUTHWEST INDIANA

CITY           SKY/WX    TMP DP  RH WIND       PRES   REMARKS
EVANSVILLE     CLEAR     43  32  65 N5        29.99R
HUNTINGBURG *+ CLEAR     39  32  75 N6        29.97S
WASHINGTON +   CLEAR     38  31  76 NW6       29.97F

$$

INZ062-063-066-070>080-084-089>092-271100-
SOUTH CENTRAL AND SOUTHEAST INDIANA

CITY           SKY/WX    TMP DP  RH WIND       PRES   REMARKS
BEDFORD +      CLEAR     39  30  70 CALM      29.96R
BLOOMINGTON    FAIR      39  29  67 NW6       29.97R
MADISON *+     PTCLDY    41  34  75 NW3       29.95S
NORTH VERNON + CLEAR     37  34  87 W3        29.96R
SEYMOUR +      CLEAR     37  32  81 CALM      29.96R

$$



USA.gov is the U.S. government's official web portal to all federal, state and local government web resources and services.